TimeMDT,TemperatureF,Dew PointF,Humidity,Sea Level PressureIn,VisibilityMPH,Wind Direction,Wind SpeedMPH,Gust SpeedMPH,PrecipitationIn,Events,Conditions,WindDirDegrees,DateUTC
12:53 AM,34.0,25.0,70,30.13,10.0,NW,9.2,-,N/A,,Clear,320,2013-10-23 06:53:00
1:53 AM,30.0,23.0,75,30.13,10.0,East,3.5,-,N/A,,Clear,100,2013-10-23 07:53:00
2:53 AM,28.0,21.9,78,30.13,10.0,NE,4.6,-,N/A,,Clear,40,2013-10-23 08:53:00
3:53 AM,25.0,19.9,81,30.13,10.0,NE,4.6,-,N/A,,Clear,50,2013-10-23 09:53:00
4:53 AM,24.1,19.9,84,30.14,10.0,Calm,Calm,-,N/A,,Clear,0,2013-10-23 10:53:00
5:53 AM,26.1,19.9,78,30.17,10.0,Calm,Calm,-,N/A,,Clear,0,2013-10-23 11:53:00
6:53 AM,24.1,19.9,84,30.25,10.0,East,4.6,-,N/A,,Clear,90,2013-10-23 12:53:00
7:53 AM,21.9,17.1,82,30.30,10.0,Calm,Calm,-,N/A,,Clear,0,2013-10-23 13:53:00
8:53 AM,30.9,25.0,79,30.26,10.0,Calm,Calm,-,N/A,,Clear,0,2013-10-23 14:53:00
9:53 AM,37.0,25.0,62,30.25,10.0,East,3.5,-,N/A,,Clear,100,2013-10-23 15:53:00
10:53 AM,44.1,25.0,47,30.20,10.0,South,3.5,-,N/A,,Clear,190,2013-10-23 16:53:00
11:53 AM,50.0,26.1,39,30.18,10.0,Variable,3.5,-,N/A,,Clear,0,2013-10-23 17:53:00
12:53 PM,55.0,24.1,30,30.14,10.0,South,5.8,-,N/A,,Clear,190,2013-10-23 18:53:00
1:53 PM,59.0,24.1,26,30.11,10.0,Variable,3.5,-,N/A,,Clear,0,2013-10-23 19:53:00
2:53 PM,60.1,21.9,23,30.10,10.0,WSW,3.5,-,N/A,,Clear,250,2013-10-23 20:53:00
3:53 PM,61.0,21.9,22,30.10,10.0,SSW,5.8,-,N/A,,Clear,210,2013-10-23 21:53:00
4:53 PM,61.0,21.9,22,30.10,10.0,SSW,5.8,-,N/A,,Clear,200,2013-10-23 22:53:00
5:53 PM,57.0,24.1,28,30.11,10.0,SW,3.5,-,N/A,,Clear,220,2013-10-23 23:53:00
6:53 PM,45.0,21.9,40,30.18,10.0,Calm,Calm,-,N/A,,Clear,0,2013-10-24 00:53:00
7:53 PM,37.0,21.9,54,30.25,10.0,NNW,8.1,-,N/A,,Clear,340,2013-10-24 01:53:00
8:53 PM,35.1,21.9,59,30.23,10.0,Calm,Calm,-,N/A,,Clear,0,2013-10-24 02:53:00
9:53 PM,33.1,21.9,64,30.22,10.0,NNW,5.8,-,N/A,,Clear,340,2013-10-24 03:53:00
10:53 PM,32.0,21.9,66,30.19,10.0,ENE,3.5,-,N/A,,Clear,70,2013-10-24 04:53:00
11:53 PM,32.0,21.9,66,30.17,10.0,Calm,Calm,-,N/A,,Clear,0,2013-10-24 05:53:00